Flag for Nepal Weather past 2 weeks in Kathmandu, Nepal

Now
81 °F

Broken clouds.


Feels Like: 84 °F
Forecast: 65 / 73 °F
Wind: 6 mph from Southwest

Location: Kathmandu Airport

Current Time: Jul 6, 2015 at 1:19:25 PM

Latest Report: Jul 6, 2015 at 12:35 PM


Visibility: 4 mi

Pressure: 29.80 "Hg (25.69 "Hg at 1305m altitude)

Humidity: 70%

Dew point: 70 °F

Location of KathmanduLocation

Historic Weather in Kathmandu — Graph

°F

Kathmandu temperature yesterday

Maximum temperature yesterday: 81 °F (at 10:35 AM)
Minimum temperature yesterday: 68 °F (at 12:35 PM)
Average temperature yesterday: 72 °F

Past Weeks' High & Low Weather Summary

 TemperatureHumidityPressure
High86 °F (Jun 30, 3:35 PM)100% (Jun 25, 6:35 AM)30.01 "Hg (Jun 25, 6:35 AM)
Low68 °F (Jun 25, 6:35 AM)58% (Jun 21, 1:35 PM)29.62 "Hg (Jun 23, 3:35 PM)
Average75 °F83%29.78 "Hg
* Reported Jun 21 11:35 AM — Jul 6 11:35 AM, Kathmandu, Weather by CustomWeather, © 2015

Note: Actual official high and low records may vary slightly from our data, if they occured in-between our weather recording intervals... More about our weather records

Advertising

Kathmandu weather history for previous 24 hours

 ConditionsComfort  
Time TempWeatherWind HumidityBarometerVisibility
11:35 AM
Mon, Jul 6
79 °FFog.No wind74%29.80 "Hg3 mi
10:35 AM79 °FFog.No wind74%29.83 "Hg3 mi
9:35 AM73 °FFog.No wind89%29.83 "Hg2 mi
8:35 AM72 °FFog.No wind94%29.83 "Hg2 mi
7:35 AM72 °FRain. Broken clouds.2 mph94%29.80 "Hg1 mi
6:35 AM70 °FFog.3 mph100%29.80 "Hg1 mi
5:35 AM70 °FFog.5 mph100%29.77 "Hg2 mi
4:35 AM70 °FFog.No wind100%29.77 "Hg2 mi
3:35 AM70 °FFog.No wind100%29.77 "Hg2 mi
1:35 AM70 °FFog.No wind100%29.77 "Hg2 mi
12:35 AMN/AFog.No windN/A29.77 "Hg3 mi
11:35 PM
Sun, Jul 5
70 °FFog.No wind100%29.80 "Hg3 mi
10:35 PM70 °FFog.No wind94%29.80 "Hg3 mi
9:35 PM70 °FFog.No wind100%29.80 "Hg3 mi
8:35 PM72 °FFog.2 mph94%29.77 "Hg3 mi
7:35 PM70 °FFog.3 mph100%29.74 "Hg3 mi
6:35 PM72 °FFog.3 mph94%29.71 "Hg3 mi
5:35 PM70 °FFog.No wind94%29.71 "Hg3 mi
4:35 PM70 °FLight rain. More clouds than sun.2 mph94%29.74 "Hg2 mi
3:35 PM70 °FThunderstorms. More clouds than sun.3 mph94%29.77 "Hg2 mi
2:35 PM70 °FThunderstorms. More clouds than sun.2 mph94%29.80 "Hg2 mi
1:35 PM68 °FThunderstorms. Broken clouds.2 mph100%29.80 "Hg2 mi
Weather by CustomWeather, © 2015

See weather overviewHow to use our weather pages